Gilze-Rijen, Netherlands

5:39 PM CEST on May 21, 2018 (GMT +0200)
Gilze-Rijen Air Base

Weather History for EHGR - October, 2013

Change the Weather History Date:

Friday, October 4, 2013

  Actual Average Record
Temperature  
Mean Temperature 61 °F -  
Max Temperature 69 °F 56 °F 71 °F (2010)
Min Temperature 53 °F 43 °F 37 °F (1998)
Degree Days  
Heating Degree Days 4    
Growing Degree Days 11 (Base 50)    
Moisture  
Dew Point 57 °F    
Average Humidity 85    
Maximum Humidity 100    
Minimum Humidity 68    
Precipitation  
Precipitation 0.00 in - - ()
Sea Level Pressure  
Sea Level Pressure 29.93 in    
Wind  
Wind Speed 9 mph ()    
Max Wind Speed 16 mph    
Max Gust Speed -    
Visibility 6.1 miles    
Events Rain    
Averages and records for this station are not official NWS values.
T = Trace of Precipitation, MM = Missing Value Source: Averaged Metar Reports

Daily Weather History Graph

Daily Weather History Graph

Search for Another Location

Airport or City:

Astronomy

Oct. 04, 2013 Rise Set
Actual Time 7:45 AM CEST 7:10 PM CEST
Civil Twilight 7:12 AM CEST 7:44 PM CEST
Nautical Twilight 6:33 AM CEST 8:22 PM CEST
Astronomical Twilight 5:54 AM CEST 9:02 PM CEST
Moon 7:04 AM CEST (10/4) 6:41 PM CEST (10/4)
Length of Visible Light 12h 31m
Length of Day
11h 25m
Waning Crescent, 0% of the Moon is Illuminated
Oct 4
Waning Crescent
Oct 5
New
Oct 12
First Quarter
Oct 19
Full
Oct 27
Last Quarter

Hourly Weather History & Observations

Time (CEST) Temp. Dew Point Humidity Pressure Visibility Wind Dir Wind Speed Gust Speed Precip Events Conditions
12:07 AM 53.6 °F 51.8 °F 94% 29.92 in 6.2 mi SE 6.9 mph - N/A   Overcast
12:25 AM 53.6 °F 51.8 °F 94% 29.92 in 6.2 mi SE 8.1 mph - N/A   Overcast
12:55 AM 55.4 °F 51.8 °F 88% 29.92 in 6.2 mi SE 8.1 mph - N/A   Overcast
1:25 AM 53.6 °F 51.8 °F 94% 29.92 in 6.2 mi SE 9.2 mph - N/A   Mostly Cloudy
1:55 AM 55.4 °F 51.8 °F 88% 29.92 in 6.2 mi SSE 10.4 mph - N/A Rain Light Rain
2:25 AM 55.4 °F 51.8 °F 88% 29.92 in 6.2 mi SE 10.4 mph - N/A Rain Rain
2:55 AM 55.4 °F 51.8 °F 88% 29.92 in 6.2 mi SSE 6.9 mph - N/A Rain Rain
3:00 AM 53.6 °F 53.6 °F 100% 29.92 in 6.2 mi SE 6.9 mph - N/A Rain Heavy Rain Showers
3:08 AM 53.6 °F 51.8 °F 94% 29.92 in 6.2 mi SE 9.2 mph - N/A Rain Light Rain
3:25 AM 53.6 °F 51.8 °F 94% 29.92 in 6.2 mi SE 9.2 mph - N/A Rain Light Rain
3:55 AM 53.6 °F 51.8 °F 94% 29.89 in 6.2 mi ESE 8.1 mph - N/A   Overcast
4:25 AM 53.6 °F 51.8 °F 94% 29.92 in 6.2 mi SE 8.1 mph - N/A   Mostly Cloudy
4:55 AM 53.6 °F 51.8 °F 94% 29.92 in 6.2 mi SE 8.1 mph - N/A   Mostly Cloudy
5:25 AM 53.6 °F 50.0 °F 88% 29.89 in 6.2 mi SE 8.1 mph - N/A   Mostly Cloudy
6:25 AM 55.4 °F 51.8 °F 88% 29.89 in 6.2 mi SSE 8.1 mph - N/A   Overcast
6:34 AM 55.4 °F 51.8 °F 88% 29.89 in 4.3 mi SSE 8.1 mph - N/A Rain Light Rain
6:35 AM 55.4 °F 53.6 °F 94% 29.89 in 6.2 mi SSE 8.1 mph - N/A Rain Light Rain
6:45 AM 55.4 °F 53.6 °F 94% 29.89 in 6.2 mi SSE 10.4 mph - N/A Rain Light Rain
6:55 AM 55.4 °F 53.6 °F 94% 29.89 in 6.2 mi SSE 9.2 mph - N/A   Drizzle
7:25 AM 57.2 °F 55.4 °F 94% 29.89 in 6.2 mi SE 8.1 mph - N/A Rain Light Rain
7:55 AM 57.2 °F 55.4 °F 94% 29.89 in 5.6 mi SE 5.8 mph - N/A   Overcast
8:25 AM 57.2 °F 55.4 °F 94% 29.89 in 6.2 mi SSE 8.1 mph - N/A   Overcast
8:28 AM 57.2 °F 55.4 °F 94% 29.89 in 6.2 mi SSE 6.9 mph - N/A   Overcast
8:55 AM 57.2 °F 55.4 °F 94% 29.89 in 5.6 mi SSE 8.1 mph - N/A   Mostly Cloudy
9:25 AM 59.0 °F 57.2 °F 94% 29.92 in 6.2 mi SSE 9.2 mph - N/A   Partly Cloudy
9:55 AM 59.0 °F 57.2 °F 94% 29.92 in 6.2 mi SE 9.2 mph - N/A   Unknown
10:04 AM 60.8 °F 57.2 °F 88% 29.92 in 6.2 mi SSE 8.1 mph - N/A   Scattered Clouds
10:08 AM 60.8 °F 57.2 °F 88% 29.92 in 6.2 mi South 9.2 mph - N/A   Scattered Clouds
10:25 AM 62.6 °F 59.0 °F 88% 29.92 in 6.2 mi South 9.2 mph - N/A   Scattered Clouds
10:29 AM 62.6 °F 59.0 °F 88% 29.92 in 6.2 mi South 10.4 mph - N/A   Mostly Cloudy
10:33 AM 62.6 °F 59.0 °F 88% 29.92 in 6.2 mi South 11.5 mph - N/A   Overcast
10:40 AM 62.6 °F 59.0 °F 88% 29.92 in 6.2 mi South 10.4 mph - N/A   Mostly Cloudy
10:45 AM 62.6 °F 59.0 °F 88% 29.92 in 6.2 mi South 10.4 mph - N/A   Mostly Cloudy
10:55 AM 64.4 °F 59.0 °F 83% 29.92 in 6.2 mi South 12.7 mph - N/A   Mostly Cloudy
11:08 AM 64.4 °F 60.8 °F 88% 29.92 in 6.2 mi South 11.5 mph - N/A   Scattered Clouds
11:12 AM 64.4 °F 60.8 °F 88% 29.92 in 6.2 mi South 12.7 mph - N/A   Partly Cloudy
11:16 AM 64.4 °F 60.8 °F 88% 29.92 in 6.2 mi South 12.7 mph - N/A   Partly Cloudy
11:25 AM 66.2 °F 60.8 °F 83% 29.92 in 6.2 mi South 12.7 mph - N/A   Partly Cloudy
11:34 AM 66.2 °F 60.8 °F 83% 29.92 in 6.2 mi South 11.5 mph - N/A   Scattered Clouds
11:39 AM 66.2 °F 60.8 °F 83% 29.92 in 6.2 mi South 12.7 mph - N/A   Scattered Clouds
11:45 AM 66.2 °F 62.6 °F 88% 29.92 in 6.2 mi South 12.7 mph - N/A   Scattered Clouds
11:55 AM 68.0 °F 60.8 °F 78% 29.92 in 6.2 mi South 13.8 mph - N/A   Mostly Cloudy
12:03 PM 68.0 °F 60.8 °F 78% 29.92 in 6.2 mi SSW 13.8 mph - N/A   Partly Cloudy
12:25 PM 68.0 °F 62.6 °F 83% 29.92 in 6.2 mi South 16.1 mph - N/A   Partly Cloudy
12:27 PM 68.0 °F 62.6 °F 83% 29.92 in 6.2 mi South 16.1 mph - N/A   Partly Cloudy
12:32 PM 68.0 °F 60.8 °F 78% 29.92 in 6.2 mi South 16.1 mph - N/A   Scattered Clouds
12:51 PM 68.0 °F 62.6 °F 83% 29.92 in 6.2 mi SSW 15.0 mph - N/A   Overcast
12:55 PM 69.8 °F 62.6 °F 78% 29.92 in 6.2 mi SSW 15.0 mph - N/A   Overcast
1:25 PM 69.8 °F 62.6 °F 78% 29.92 in 6.2 mi South 15.0 mph - N/A   Scattered Clouds
1:43 PM 69.8 °F 60.8 °F 73% 29.92 in 6.2 mi SSW 16.1 mph - N/A   Mostly Cloudy
1:44 PM 69.8 °F 60.8 °F 73% 29.92 in 6.2 mi SSW 15.0 mph - N/A   Mostly Cloudy
1:55 PM 69.8 °F 60.8 °F 73% 29.92 in 6.2 mi SSW 13.8 mph - N/A   Mostly Cloudy
1:59 PM 69.8 °F 60.8 °F 73% 29.92 in 6.2 mi SSW 15.0 mph - N/A   Mostly Cloudy
2:25 PM 69.8 °F 60.8 °F 73% 29.95 in 6.2 mi SSW 11.5 mph - N/A   Mostly Cloudy
2:35 PM 69.8 °F 59.0 °F 68% 29.95 in 6.2 mi SSW 11.5 mph - N/A   Overcast
2:55 PM 69.8 °F 59.0 °F 68% 29.95 in 6.2 mi SSW 10.4 mph - N/A   Mostly Cloudy
3:25 PM 69.8 °F 59.0 °F 68% 29.92 in 6.2 mi SSW 11.5 mph - N/A   Scattered Clouds
3:55 PM 69.8 °F 59.0 °F 68% 29.95 in 6.2 mi SSW 12.7 mph - N/A   Mostly Cloudy
4:06 PM 69.8 °F 59.0 °F 68% 29.95 in 6.2 mi SSW 11.5 mph - N/A   Mostly Cloudy
4:25 PM 69.8 °F 59.0 °F 68% 29.95 in 6.2 mi SSW 12.7 mph - N/A   Mostly Cloudy
4:55 PM 69.8 °F 59.0 °F 68% 29.95 in 6.2 mi SSW 10.4 mph - N/A   Overcast
5:25 PM 68.0 °F 59.0 °F 73% 29.95 in 6.2 mi SSW 10.4 mph - N/A   Partly Cloudy
5:55 PM 68.0 °F 59.0 °F 73% 29.95 in 6.2 mi SSW 8.1 mph - N/A   Scattered Clouds
6:25 PM 66.2 °F 59.0 °F 78% 29.95 in 6.2 mi SSW 6.9 mph - N/A   Scattered Clouds
6:55 PM 64.4 °F 59.0 °F 83% 29.95 in 6.2 mi SSW 6.9 mph - N/A   Overcast
7:25 PM 64.4 °F 59.0 °F 83% 29.95 in 6.2 mi SSW 5.8 mph - N/A   Mostly Cloudy
7:47 PM 62.6 °F 57.2 °F 82% 29.95 in 3.1 mi SSW 4.6 mph - N/A   Partly Cloudy
7:51 PM 60.8 °F 57.2 °F 88% 29.95 in 6.2 mi South 5.8 mph - N/A   Partly Cloudy
7:55 PM 60.8 °F 57.2 °F 88% 29.95 in 6.2 mi South 5.8 mph - N/A   Scattered Clouds
8:08 PM 60.8 °F 57.2 °F 88% 29.98 in 6.2 mi South 5.8 mph - N/A   Scattered Clouds
8:25 PM 62.6 °F 57.2 °F 82% 29.98 in 6.2 mi SSW 6.9 mph - N/A   Overcast
8:55 PM 62.6 °F 57.2 °F 82% 29.95 in 6.2 mi SSW 4.6 mph - N/A   Overcast
9:25 PM 62.6 °F 57.2 °F 82% 29.95 in 6.2 mi SSW 4.6 mph - N/A   Overcast
9:55 PM 62.6 °F 57.2 °F 82% 29.95 in 6.2 mi SSW 4.6 mph - N/A   Overcast
10:25 PM 62.6 °F 57.2 °F 82% 29.95 in 6.2 mi WSW 2.3 mph - N/A   Overcast
10:55 PM 59.0 °F 57.2 °F 94% 29.95 in 6.2 mi South 3.5 mph - N/A   Mostly Cloudy
11:25 PM 59.0 °F 57.2 °F 94% 29.95 in 6.2 mi South 4.6 mph - N/A   Overcast
11:55 PM 60.8 °F 57.2 °F 88% 29.95 in 6.2 mi SSW 3.5 mph - N/A   Overcast